Location: Neuvy Saint Sepulchre
(46.5953°N, 1.8122°E)
Time: 07:35:09
(UTC+02:00)

ISS - Pass Details

Date: 13 July 2021
Orbit: 419 x 421 km, 51.6° (Epoch: 03 August)

Event Time Altitude Azimuth Distance (km) Brightness Sun altitude
Rises 22:50:58 0° 209° (SSW) 2,357 -0.1 -9.6°
Reaches altitude 10° 22:53:18 10° 194° (SSW) 1,497 -1.3 -9.9°
Maximum altitude 22:56:03 24° 139° (SE) 925 -2.6 -10.2°
Drops below altitude 10° 22:58:49 10° 84° (E) 1,504 -1.3 -10.6°
Sets 23:01:10 0° 70° (ENE) 2,371 -0.2 -10.8°
